timestamp,wind_dir_avg,wind_spd_max_dir,wind_spd_avg,wind_spd_gust,battery_voltage,lat,long
2017-11-15 00:00:00+00:00,77.0,76.0,11.86,14.2,,47.59359,-54.27349
2017-11-15 00:10:00+00:00,79.0,78.0,11.77,13.06,,47.59359,-54.27349
2017-11-15 00:20:00+00:00,71.0,71.0,12.48,13.59,,47.59359,-54.27349
2017-11-15 00:30:00+00:00,73.0,69.0,12.52,15.6,,47.59359,-54.27349
2017-11-15 00:40:00+00:00,76.0,74.0,11.6,13.37,,47.59359,-54.27349
2017-11-15 00:50:00+00:00,71.0,71.0,12.32,14.31,,47.59359,-54.27349
2017-11-15 01:00:00+00:00,66.0,76.0,13.02,16.47,,47.59359,-54.27349
2017-11-15 01:10:00+00:00,73.0,72.0,10.79,12.19,,47.59359,-54.27349
2017-11-15 01:20:00+00:00,67.0,59.0,11.35,14.17,,47.59359,-54.27349
2017-11-15 01:30:00+00:00,59.0,61.0,12.71,14.29,,47.59359,-54.27349
2017-11-15 01:40:00+00:00,66.0,69.0,11.53,13.08,,47.59359,-54.27349
2017-11-15 01:50:00+00:00,57.0,57.0,12.91,14.62,,47.59359,-54.27349
2017-11-15 02:00:00+00:00,61.0,66.0,13.17,15.36,,47.59359,-54.27349
2017-11-15 02:10:00+00:00,63.0,72.0,14.15,16.16,,47.59359,-54.27349
2017-11-15 02:20:00+00:00,72.0,71.0,13.41,15.7,,47.59359,-54.27349
2017-11-15 02:30:00+00:00,68.0,63.0,13.43,15.26,,47.59359,-54.27349
2017-11-15 02:40:00+00:00,65.0,65.0,13.92,16.36,,47.59359,-54.27349
2017-11-15 02:50:00+00:00,65.0,63.0,13.61,16.45,,47.59359,-54.27349
2017-11-15 03:00:00+00:00,63.0,62.0,14.78,16.29,,47.59359,-54.27349
2017-11-15 03:10:00+00:00,61.0,67.0,15.06,18.03,,47.59359,-54.27349
2017-11-15 03:20:00+00:00,70.0,68.0,13.97,16.51,,47.59359,-54.27349
2017-11-15 03:30:00+00:00,64.0,59.0,13.67,15.76,,47.59359,-54.27349
2017-11-15 03:40:00+00:00,65.0,63.0,14.32,16.24,,47.59359,-54.27349
2017-11-15 03:50:00+00:00,54.0,54.0,15.14,17.09,,47.59359,-54.27349
2017-11-15 04:00:00+00:00,59.0,55.0,13.8,16.55,,47.59359,-54.27349
2017-11-15 04:10:00+00:00,57.0,58.0,12.87,15.22,,47.59359,-54.27349
2017-11-15 04:20:00+00:00,59.0,57.0,14.31,16.88,,47.59359,-54.27349
2017-11-15 04:30:00+00:00,58.0,57.0,14.48,18.04,,47.59359,-54.27349
2017-11-15 04:40:00+00:00,62.0,64.0,13.25,17.07,,47.59359,-54.27349
2017-11-15 04:50:00+00:00,60.0,57.0,13.49,17.53,,47.59359,-54.27349
2017-11-15 05:00:00+00:00,65.0,69.0,13.15,15.84,,47.59359,-54.27349
2017-11-15 05:10:00+00:00,64.0,69.0,14.13,15.93,,47.59359,-54.27349
2017-11-15 05:20:00+00:00,58.0,66.0,14.09,16.95,,47.59359,-54.27349
2017-11-15 05:30:00+00:00,62.0,58.0,13.87,15.29,,47.59359,-54.27349
2017-11-15 05:40:00+00:00,65.0,71.0,13.19,14.78,,47.59359,-54.27349
2017-11-15 05:50:00+00:00,62.0,55.0,12.44,15.35,,47.59359,-54.27349
2017-11-15 06:00:00+00:00,58.0,55.0,13.89,15.09,,47.59359,-54.27349
2017-11-15 06:10:00+00:00,59.0,60.0,12.74,14.7,,47.59359,-54.27349
2017-11-15 06:20:00+00:00,59.0,60.0,13.34,15.05,,47.59359,-54.27349
2017-11-15 06:30:00+00:00,63.0,64.0,12.71,14.56,,47.59359,-54.27349
2017-11-15 06:40:00+00:00,58.0,60.0,13.32,14.76,,47.59359,-54.27349
2017-11-15 06:50:00+00:00,57.0,57.0,13.17,15.07,,47.59359,-54.27349
2017-11-15 07:00:00+00:00,60.0,65.0,12.55,14.15,,47.59359,-54.27349
2017-11-15 07:10:00+00:00,62.0,56.0,12.88,14.23,,47.59359,-54.27349
2017-11-15 07:20:00+00:00,61.0,64.0,12.86,15.01,,47.59359,-54.27349
2017-11-15 07:30:00+00:00,60.0,61.0,11.67,13.5,,47.59359,-54.27349
2017-11-15 07:40:00+00:00,62.0,63.0,11.83,13.01,,47.59359,-54.27349
2017-11-15 07:50:00+00:00,79.0,80.0,12.1,14.69,,47.59359,-54.27349
2017-11-15 08:00:00+00:00,74.0,70.0,11.23,13.62,,47.59359,-54.27349
2017-11-15 08:10:00+00:00,80.0,78.0,10.98,12.77,,47.59359,-54.27349
2017-11-15 08:20:00+00:00,72.0,69.0,11.74,13.6,,47.59359,-54.27349
2017-11-15 08:30:00+00:00,62.0,64.0,12.25,13.72,,47.59359,-54.27349
2017-11-15 08:40:00+00:00,79.0,72.0,11.4,12.67,,47.59359,-54.27349
2017-11-15 08:50:00+00:00,77.0,73.0,11.99,13.81,,47.59359,-54.27349
2017-11-15 09:00:00+00:00,73.0,72.0,12.28,14.68,,47.59359,-54.27349
2017-11-15 09:10:00+00:00,72.0,59.0,13.28,16.38,,47.59359,-54.27349
2017-11-15 09:20:00+00:00,72.0,72.0,13.6,15.32,,47.59359,-54.27349
2017-11-15 09:30:00+00:00,66.0,67.0,12.32,14.01,,47.59359,-54.27349
2017-11-15 09:40:00+00:00,75.0,82.0,11.69,13.62,,47.59359,-54.27349
2017-11-15 09:50:00+00:00,77.0,77.0,11.26,12.86,,47.59359,-54.27349
2017-11-15 10:00:00+00:00,72.0,73.0,12.12,14.12,,47.59359,-54.27349
2017-11-15 10:10:00+00:00,72.0,71.0,12.33,14.72,,47.59359,-54.27349
2017-11-15 10:20:00+00:00,67.0,74.0,12.27,14.62,,47.59359,-54.27349
2017-11-15 10:30:00+00:00,74.0,68.0,12.18,14.54,,47.59359,-54.27349
2017-11-15 10:40:00+00:00,69.0,59.0,11.13,13.39,,47.59359,-54.27349
2017-11-15 10:50:00+00:00,70.0,74.0,11.78,13.77,,47.59359,-54.27349
2017-11-15 11:00:00+00:00,64.0,61.0,12.91,14.5,,47.59359,-54.27349
2017-11-15 11:10:00+00:00,68.0,70.0,12.44,13.77,,47.59359,-54.27349
2017-11-15 11:20:00+00:00,53.0,58.0,12.97,14.5,,47.59359,-54.27349
2017-11-15 11:30:00+00:00,56.0,50.0,11.88,15.21,,47.59359,-54.27349
2017-11-15 11:40:00+00:00,51.0,53.0,11.58,12.83,,47.59359,-54.27349
2017-11-15 11:50:00+00:00,43.0,47.0,10.66,12.14,,47.59359,-54.27349
2017-11-15 12:00:00+00:00,38.0,32.0,12.09,13.42,,47.59359,-54.27349
2017-11-15 12:10:00+00:00,48.0,52.0,12.1,14.22,,47.59359,-54.27349
2017-11-15 12:20:00+00:00,52.0,50.0,10.75,12.47,,47.59359,-54.27349
2017-11-15 12:30:00+00:00,60.0,56.0,10.81,12.08,,47.59359,-54.27349
2017-11-15 12:40:00+00:00,65.0,66.0,12.94,14.98,,47.59359,-54.27349
2017-11-15 12:50:00+00:00,72.0,76.0,11.71,15.1,,47.59359,-54.27349
2017-11-15 13:00:00+00:00,68.0,70.0,12.04,14.37,,47.59359,-54.27349
2017-11-15 13:10:00+00:00,68.0,64.0,13.52,15.23,,47.59359,-54.27349
2017-11-15 13:20:00+00:00,70.0,64.0,12.35,14.04,,47.59359,-54.27349
2017-11-15 13:30:00+00:00,57.0,59.0,13.07,15.7,,47.59359,-54.27349
2017-11-15 13:40:00+00:00,67.0,72.0,11.87,14.09,,47.59359,-54.27349
2017-11-15 13:50:00+00:00,67.0,72.0,11.25,14.75,,47.59359,-54.27349
2017-11-15 14:00:00+00:00,57.0,57.0,13.02,15.67,,47.59359,-54.27349
2017-11-15 14:10:00+00:00,72.0,72.0,11.24,13.82,,47.59359,-54.27349
2017-11-15 14:20:00+00:00,70.0,66.0,11.69,13.41,,47.59359,-54.27349
2017-11-15 14:30:00+00:00,64.0,68.0,12.49,13.67,,47.59359,-54.27349
2017-11-15 14:40:00+00:00,69.0,74.0,11.22,12.53,,47.59359,-54.27349
2017-11-15 14:50:00+00:00,65.0,57.0,10.96,13.64,,47.59359,-54.27349
2017-11-15 15:00:00+00:00,53.0,49.0,12.8,14.12,,47.59359,-54.27349
2017-11-15 15:10:00+00:00,68.0,72.0,11.5,15.42,,47.59359,-54.27349
2017-11-15 15:20:00+00:00,58.0,60.0,11.54,13.6,,47.59359,-54.27349
2017-11-15 15:30:00+00:00,62.0,64.0,12.59,14.93,,47.59359,-54.27349
2017-11-15 15:40:00+00:00,58.0,58.0,10.21,12.36,,47.59359,-54.27349
2017-11-15 15:50:00+00:00,51.0,50.0,11.85,14.67,,47.59359,-54.27349
2017-11-15 16:00:00+00:00,50.0,44.0,11.69,13.32,,47.59359,-54.27349
2017-11-15 16:10:00+00:00,55.0,53.0,12.84,15.39,,47.59359,-54.27349
2017-11-15 16:20:00+00:00,51.0,54.0,13.94,15.47,,47.59359,-54.27349
2017-11-15 16:30:00+00:00,59.0,59.0,13.0,13.99,,47.59359,-54.27349
2017-11-15 16:40:00+00:00,52.0,49.0,13.12,15.57,,47.59359,-54.27349
2017-11-15 16:50:00+00:00,56.0,54.0,11.9,13.91,,47.59359,-54.27349
2017-11-15 17:00:00+00:00,58.0,59.0,13.06,14.84,,47.59359,-54.27349
2017-11-15 17:10:00+00:00,55.0,56.0,13.14,14.8,,47.59359,-54.27349
2017-11-15 17:20:00+00:00,56.0,53.0,11.62,15.13,,47.59359,-54.27349
2017-11-15 17:30:00+00:00,50.0,50.0,11.45,13.35,,47.59359,-54.27349
2017-11-15 17:40:00+00:00,51.0,52.0,12.17,14.43,,47.59359,-54.27349
2017-11-15 17:50:00+00:00,53.0,54.0,12.84,14.15,,47.59359,-54.27349
2017-11-15 18:00:00+00:00,52.0,44.0,12.66,13.92,,47.59359,-54.27349
2017-11-15 18:10:00+00:00,49.0,47.0,13.47,15.44,,47.59359,-54.27349
2017-11-15 18:20:00+00:00,50.0,50.0,11.61,13.44,,47.59359,-54.27349
2017-11-15 18:30:00+00:00,50.0,49.0,12.47,14.21,,47.59359,-54.27349
2017-11-15 18:40:00+00:00,47.0,48.0,12.07,13.71,,47.59359,-54.27349
2017-11-15 18:50:00+00:00,55.0,62.0,11.66,12.82,,47.59359,-54.27349
2017-11-15 19:00:00+00:00,57.0,56.0,12.74,13.92,,47.59359,-54.27349
2017-11-15 19:10:00+00:00,52.0,59.0,11.53,16.0,,47.59359,-54.27349
2017-11-15 19:20:00+00:00,40.0,37.0,10.63,12.06,,47.59359,-54.27349
2017-11-15 19:30:00+00:00,41.0,38.0,11.22,12.5,,47.59359,-54.27349
2017-11-15 19:40:00+00:00,39.0,34.0,11.19,13.29,,47.59359,-54.27349
2017-11-15 19:50:00+00:00,37.0,40.0,11.21,13.9,,47.59359,-54.27349
2017-11-15 20:00:00+00:00,36.0,37.0,11.96,13.44,,47.59359,-54.27349
2017-11-15 20:10:00+00:00,39.0,37.0,11.36,12.99,,47.59359,-54.27349
2017-11-15 20:20:00+00:00,49.0,55.0,12.03,13.5,,47.59359,-54.27349
2017-11-15 20:30:00+00:00,45.0,39.0,10.69,13.13,,47.59359,-54.27349
2017-11-15 20:40:00+00:00,44.0,43.0,12.55,14.45,,47.59359,-54.27349
2017-11-15 20:50:00+00:00,49.0,56.0,13.16,17.01,,47.59359,-54.27349
2017-11-15 21:00:00+00:00,45.0,52.0,13.45,16.02,,47.59359,-54.27349
2017-11-15 21:10:00+00:00,48.0,54.0,13.14,15.69,,47.59359,-54.27349
2017-11-15 21:20:00+00:00,41.0,41.0,10.36,13.0,,47.59359,-54.27349
2017-11-15 21:30:00+00:00,34.0,35.0,10.67,12.37,,47.59359,-54.27349
2017-11-15 21:40:00+00:00,41.0,54.0,11.34,14.04,,47.59359,-54.27349
2017-11-15 21:50:00+00:00,36.0,37.0,11.11,12.12,,47.59359,-54.27349
2017-11-15 22:00:00+00:00,50.0,57.0,11.79,13.98,,47.59359,-54.27349
2017-11-15 22:10:00+00:00,44.0,53.0,10.89,13.52,,47.59359,-54.27349
2017-11-15 22:20:00+00:00,47.0,55.0,11.22,14.96,,47.59359,-54.27349
2017-11-15 22:30:00+00:00,36.0,30.0,11.77,13.55,,47.59359,-54.27349
2017-11-15 22:40:00+00:00,50.0,53.0,11.94,14.15,,47.59359,-54.27349
2017-11-15 22:50:00+00:00,43.0,50.0,10.91,13.74,,47.59359,-54.27349
2017-11-15 23:00:00+00:00,38.0,33.0,11.91,13.08,,47.59359,-54.27349
2017-11-15 23:10:00+00:00,39.0,38.0,11.9,14.14,,47.59359,-54.27349
2017-11-15 23:20:00+00:00,36.0,51.0,12.73,15.6,,47.59359,-54.27349
2017-11-15 23:30:00+00:00,37.0,41.0,9.64,12.4,,47.59359,-54.27349
2017-11-15 23:40:00+00:00,42.0,54.0,10.81,14.15,,47.59359,-54.27349
2017-11-15 23:50:00+00:00,40.0,54.0,10.88,12.32,,47.59359,-54.27349
